GW6644 Weather Reports


Display with metric or nautical units.
time (UTC)temp
F
wind
direction
speed
MPH
gust
MPH
rain 1hr
in
rain 24hr
in
rain mn
in
humidity
%
barometer
mb
20260906224227 98 87 1.0 2.0 0.00 0.00 0.00 39 1009.4
20260906223723 98 114 3.0 5.0 0.00 0.00 0.00 40 1009.4
20260906223219 99 88 1.0 1.0 0.00 0.00 0.00 38 1009.3
20260906222717 100 185 3.0 5.0 0.00 0.00 0.00 38 1009.5
20260906222215 100 185 3.0 5.0 0.00 0.00 0.00 38 1009.4
20260906221714 99 225 2.0 2.0 0.00 0.00 0.00 38 1009.5
20260906221209 99 112 3.0 3.0 0.00 0.00 0.00 39 1009.6
20260906220704 99 89 1.0 1.0 0.00 0.00 0.00 39 1009.6
20260906220159 99 96 1.0 2.0 0.00 0.00 0.00 39 1009.5
20260906215658 100 117 1.0 2.0 0.00 0.00 0.00 38 1009.6
20260906215156 99 86 0.0 1.0 0.00 0.00 0.00 39 1009.6
20260906214655 99 78 0.0 1.0 0.00 0.00 0.00 39 1009.8
20260906214150 98 153 2.0 2.0 0.00 0.00 0.00 39 1009.7
20260906213649 99 98 0.0 1.0 0.00 0.00 0.00 39 1009.9
20260906213144 100 90 2.0 3.0 0.00 0.00 0.00 38 1010.0
20260906212641 100 123 2.0 3.0 0.00 0.00 0.00 38 1009.9
20260906212137 98 125 3.0 5.0 0.00 0.00 0.00 39 1010.2
20260906211637 98 155 4.0 5.0 0.00 0.00 0.00 39 1010.3
20260906211132 100 87 1.0 2.0 0.00 0.00 0.00 38 1010.2
20260906210628 100 80 2.0 2.0 0.00 0.00 0.00 38 1010.2
20260906210122 100 119 3.0 3.0 0.00 0.00 0.00 38 1010.4
20260906205618 101 298 3.0 3.0 0.00 0.00 0.00 37 1010.5
20260906205114 101 317 2.0 2.0 0.00 0.00 0.00 37 1010.7
20260906204613 100 121 1.0 2.0 0.00 0.00 0.00 37 1010.5
20260906204108 100 125 2.0 3.0 0.00 0.00 0.00 37 1010.8
20260906203608 99 55 2.0 2.0 0.00 0.00 0.00 40 1010.7
20260906203103 99 267 2.0 3.0 0.00 0.00 0.00 39 1010.8
20260906202600 99 233 3.0 3.0 0.00 0.00 0.00 39 1010.7
20260906202059 99 345 3.0 3.0 0.00 0.00 0.00 40 1010.6
20260906201600 99 105 0.0 0.0 0.00 0.00 0.00 40 1010.7
20260906201059 99 55 3.0 3.0 0.00 0.00 0.00 40 1011.1
20260906200555 98 78 1.0 2.0 0.00 0.00 0.00 41 1010.9
20260906200051 98 108 2.0 3.0 0.00 0.00 0.00 42 1011.1
20260906195546 98 117 3.0 5.0 0.00 0.00 0.00 41 1010.9
20260906195043 97 351 3.0 3.0 0.00 0.00 0.00 42 1011.0
20260906194538 98 84 4.0 5.0 0.00 0.00 0.00 42 1011.2
20260906194034 99 116 2.0 2.0 0.00 0.00 0.00 40 1011.0
20260906193533 98 143 1.0 1.0 0.00 0.00 0.00 42 1011.1
20260906193029 98 88 1.0 1.0 0.00 0.00 0.00 42 1011.1
20260906192524 99 95 2.0 2.0 0.00 0.00 0.00 41 1011.4
20260906192023 98 90 0.0 0.0 0.00 0.00 0.00 43 1011.3
20260906191519 98 90 3.0 5.0 0.00 0.00 0.00 43 1011.4
20260906191017 97 150 3.0 3.0 0.00 0.00 0.00 42 1011.7
20260906190517 96 117 2.0 3.0 0.00 0.00 0.00 45 1011.3
20260906190012 97 84 3.0 3.0 0.00 0.00 0.00 44 1011.7
20260906185511 96 112 2.0 3.0 0.00 0.00 0.00 44 1011.8
20260906185010 97 136 5.0 7.0 0.00 0.00 0.00 44 1011.7
20260906184505 97 70 2.0 3.0 0.00 0.00 0.00 45 1011.8
20260906184001 98 149 1.0 2.0 0.00 0.00 0.00 43 1012.1
20260906183456 98 57 2.0 3.0 0.00 0.00 0.00 43 1012.0
20260906182952 98 80 1.0 2.0 0.00 0.00 0.00 43 1011.9
20260906182447 98 289 3.0 3.0 0.00 0.00 0.00 44 1011.9
20260906181943 97 325 3.0 3.0 0.00 0.00 0.00 43 1012.1
20260906181439 97 62 1.0 1.0 0.00 0.00 0.00 44 1012.1
20260906180934 97 78 3.0 6.0 0.00 0.00 0.00 45 1012.3
20260906180429 96 137 3.0 5.0 0.00 0.00 0.00 45 1012.2
20260906175926 96 82 2.0 3.0 0.00 0.00 0.00 46 1012.2
20260906175422 97 112 3.0 5.0 0.00 0.00 0.00 45 1012.7
20260906174920 96 82 0.0 1.0 0.00 0.00 0.00 45 1012.8
20260906174420 96 79 2.0 2.0 0.00 0.00 0.00 45 1012.7
20260906173915 95 99 3.0 5.0 0.00 0.00 0.00 46 1012.9
20260906173410 95 196 5.0 7.0 0.00 0.00 0.00 45 1013.0
20260906172909 96 8 5.0 6.0 0.00 0.00 0.00 45 1012.7
20260906172406 96 161 1.0 1.0 0.00 0.00 0.00 46 1013.0
20260906171901 95 246 3.0 5.0 0.00 0.00 0.00 46 1013.2
20260906171355 95 193 3.0 3.0 0.00 0.00 0.00 46 1013.0
20260906170851 95 219 1.0 1.0 0.00 0.00 0.00 48 1013.0
20260906170347 95 56 3.0 3.0 0.00 0.00 0.00 47 1013.3
20260906165843 95 146 3.0 3.0 0.00 0.00 0.00 48 1013.2
20260906165342 94 298 2.0 2.0 0.00 0.00 0.00 49 1013.3
20260906164837 95 25 2.0 2.0 0.00 0.00 0.00 48 1013.4
20260906164336 94 88 0.0 1.0 0.00 0.00 0.00 49 1013.6
20260906163833 94 205 3.0 3.0 0.00 0.00 0.00 49 1013.4
20260906163329 94 183 1.0 2.0 0.00 0.00 0.00 49 1013.3
20260906162826 92 89 1.0 2.0 0.00 0.00 0.00 52 1013.5
20260906162325 93 184 3.0 5.0 0.00 0.00 0.00 52 1013.5
20260906161821 93 90 1.0 2.0 0.00 0.00 0.00 51 1013.3
20260906161320 93 195 4.0 5.0 0.00 0.00 0.00 51 1013.5
20260906160819 93 86 1.0 1.0 0.00 0.00 0.00 53 1013.5
20260906160313 93 109 0.0 1.0 0.00 0.00 0.00 53 1013.3
20260906155811 93 98 2.0 2.0 0.00 0.00 0.00 54 1013.3
20260906155307 93 104 2.0 2.0 0.00 0.00 0.00 54 1013.5
20260906154802 92 96 0.0 1.0 0.00 0.00 0.00 55 1013.6
20260906154256 91 70 2.0 2.0 0.00 0.00 0.00 58 1013.5
20260906153754 90 91 1.0 1.0 0.00 0.00 0.00 60 1013.7
20260906153249 91 314 1.0 1.0 0.00 0.00 0.00 58 1013.4
20260906152744 90 89 0.0 1.0 0.00 0.00 0.00 59 1013.3
20260906152245 91 77 1.0 1.0 0.00 0.00 0.00 58 1013.3
20260906151744 92 56 1.0 1.0 0.00 0.00 0.00 57 1013.3
20260906151240 91 93 0.0 1.0 0.00 0.00 0.00 58 1013.2
20260906150735 89 93 0.0 0.0 0.00 0.00 0.00 61 1013.0
20260906150231 89 3 2.0 2.0 0.00 0.00 0.00 62 1013.1
20260906145729 88 79 2.0 2.0 0.00 0.00 0.00 63 1013.1
20260906145228 88 81 2.0 2.0 0.00 0.00 0.00 63 1013.1
20260906144724 88 123 2.0 2.0 0.00 0.00 0.00 63 1013.2
20260906144219 87 86 0.0 1.0 0.00 0.00 0.00 64 1013.0
20260906143718 87 98 0.0 1.0 0.00 0.00 0.00 64 1013.0
20260906143216 86 103 1.0 2.0 0.00 0.00 0.00 65 1012.8
20260906142715 86 84 1.0 1.0 0.00 0.00 0.00 66 1012.9
20260906142210 86 111 1.0 1.0 0.00 0.00 0.00 67 1013.2
20260906141709 86 49 1.0 1.0 0.00 0.00 0.00 67 1013.3
20260906141204 86 69 1.0 1.0 0.00 0.00 0.00 67 1013.0
20260906140703 85 94 0.0 1.0 0.00 0.00 0.00 68 1013.1
20260906140158 85 92 0.0 0.0 0.00 0.00 0.00 68 1013.1
20260906135655 85 94 0.0 0.0 0.00 0.00 0.00 69 1013.0
20260906135151 84 151 0.0 1.0 0.00 0.00 0.00 70 1012.8
20260906134647 84 95 0.0 0.0 0.00 0.00 0.00 71 1012.7
20260906134141 83 92 0.0 1.0 0.00 0.00 0.00 71 1012.7
20260906133637 83 104 1.0 1.0 0.00 0.00 0.00 72 1013.0
20260906133137 82 85 1.0 1.0 0.00 0.00 0.00 73 1012.8
20260906132633 82 93 0.0 1.0 0.00 0.00 0.00 73 1013.0
20260906132128 82 111 1.0 1.0 0.00 0.00 0.00 74 1013.1
20260906131624 82 90 1.0 1.0 0.00 0.00 0.00 75 1013.0
20260906131119 82 94 1.0 1.0 0.00 0.00 0.00 75 1012.8
20260906130614 81 92 0.0 0.0 0.00 0.00 0.00 76 1013.0
20260906130109 81 90 0.0 0.0 0.00 0.00 0.00 77 1013.1
20260906125607 80 90 0.0 1.0 0.00 0.00 0.00 78 1012.7
20260906125106 80 86 0.0 0.0 0.00 0.00 0.00 79 1012.8
20260906124602 79 88 0.0 0.0 0.00 0.00 0.00 79 1012.6
20260906124056 79 99 1.0 1.0 0.00 0.00 0.00 79 1012.8
20260906123555 78 92 1.0 1.0 0.00 0.00 0.00 80 1012.9
20260906123051 78 89 0.0 0.0 0.00 0.00 0.00 80 1012.7
20260906122550 78 97 0.0 1.0 0.00 0.00 0.00 80 1012.6
20260906122046 78 90 0.0 0.0 0.00 0.00 0.00 80 1012.6
20260906121542 78 89 0.0 0.0 0.00 0.00 0.00 80 1012.3
20260906121038 78 89 0.0 0.0 0.00 0.00 0.00 79 1012.3
20260906120533 78 90 0.0 0.0 0.00 0.00 0.00 79 1012.4
20260906120031 78 89 0.0 0.0 0.00 0.00 0.00 79 1012.3
20260906115530 78 89 0.0 0.0 0.00 0.00 0.00 79 1012.4
20260906115025 78 89 0.0 0.0 0.00 0.00 0.00 79 1012.2
20260906114520 78 90 0.0 0.0 0.00 0.00 0.00 79 1012.1
20260906114016 78 89 0.0 0.0 0.00 0.00 0.00 79 1012.3
20260906113514 78 85 0.0 0.0 0.00 0.00 0.00 79 1012.1
20260906113010 78 98 0.0 1.0 0.00 0.00 0.00 79 1012.2
20260906112505 78 89 0.0 0.0 0.00 0.00 0.00 79 1012.0
20260906112001 78 89 0.0 0.0 0.00 0.00 0.00 79 1011.9
20260906111500 79 89 0.0 0.0 0.00 0.00 0.00 79 1011.6
20260906110955 79 89 0.0 0.0 0.00 0.00 0.00 78 1011.9
20260906110450 79 89 0.0 0.0 0.00 0.00 0.00 78 1011.9
20260906105949 79 90 0.0 0.0 0.00 0.00 0.00 77 1011.8
20260906105445 79 92 0.0 0.0 0.00 0.00 0.00 77 1012.1
20260906104941 79 92 1.0 1.0 0.00 0.00 0.00 77 1011.6
20260906104440 80 89 0.0 0.0 0.00 0.00 0.00 76 1011.7
20260906103939 80 89 0.0 0.0 0.00 0.00 0.00 75 1011.7
20260906103437 80 83 1.0 1.0 0.00 0.00 0.00 75 1011.7
20260906102932 80 88 1.0 1.0 0.00 0.00 0.00 75 1011.6
20260906102432 80 74 0.0 1.0 0.00 0.00 0.00 76 1011.8
20260906101927 80 85 0.0 0.0 0.00 0.00 0.00 76 1011.8
20260906101422 80 88 0.0 0.0 0.00 0.00 0.00 75 1011.4
20260906100918 80 88 0.0 0.0 0.00 0.00 0.00 75 1011.6
20260906100417 80 85 1.0 2.0 0.00 0.00 0.00 75 1011.4
20260906095912 80 87 0.0 0.0 0.00 0.00 0.00 75 1011.4
20260906095408 80 89 0.0 0.0 0.00 0.00 0.00 75 1011.4
20260906094908 81 90 0.0 0.0 0.00 0.00 0.00 74 1011.3
20260906094403 81 87 0.0 0.0 0.00 0.00 0.00 74 1011.4
20260906093859 81 81 1.0 1.0 0.00 0.00 0.00 74 1011.4
20260906093355 81 85 1.0 1.0 0.00 0.00 0.00 73 1011.4
20260906092855 81 93 1.0 1.0 0.00 0.00 0.00 73 1010.7
20260906092355 81 97 1.0 1.0 0.00 0.00 0.00 73 1011.2
20260906091850 81 72 1.0 1.0 0.00 0.00 0.00 73 1011.2
20260906091346 82 91 1.0 1.0 0.00 0.00 0.00 73 1011.1
20260906090843 82 64 1.0 1.0 0.00 0.00 0.00 72 1011.3
20260906090342 82 95 2.0 2.0 0.00 0.00 0.00 72 1011.1
20260906085837 82 106 2.0 3.0 0.00 0.00 0.00 72 1010.8
20260906085335 82 130 3.0 3.0 0.00 0.00 0.00 72 1010.9
20260906084830 82 288 3.0 3.0 0.00 0.00 0.00 72 1011.0
20260906084330 82 67 3.0 3.0 0.00 0.00 0.00 72 1010.9
20260906083825 82 112 1.0 1.0 0.00 0.00 0.00 72 1011.0
20260906083321 82 61 1.0 2.0 0.00 0.00 0.00 72 1010.8
20260906082820 82 83 1.0 2.0 0.00 0.00 0.00 72 1011.0
20260906082315 82 57 1.0 2.0 0.00 0.00 0.00 73 1010.9
20260906081811 82 61 1.0 1.0 0.00 0.00 0.00 73 1011.0
20260906081307 82 99 0.0 1.0 0.00 0.00 0.00 72 1010.7
20260906080803 82 81 0.0 0.0 0.00 0.00 0.00 72 1011.0
20260906080259 82 93 2.0 3.0 0.00 0.00 0.00 71 1011.0
20260906075758 83 77 1.0 2.0 0.00 0.00 0.00 71 1011.2
20260906075253 83 94 1.0 1.0 0.00 0.00 0.00 70 1011.1
20260906074748 83 318 2.0 2.0 0.00 0.00 0.00 70 1011.3
20260906074248 83 55 2.0 2.0 0.00 0.00 0.00 70 1011.6
20260906073747 83 56 3.0 3.0 0.00 0.00 0.00 70 1011.6
20260906073242 83 25 1.0 3.0 0.00 0.00 0.00 70 1011.4
20260906072738 84 81 3.0 3.0 0.00 0.00 0.00 69 1011.3
20260906072233 84 88 1.0 2.0 0.00 0.00 0.00 69 1011.3
20260906071729 84 75 1.0 1.0 0.00 0.00 0.00 69 1011.2
20260906071229 84 85 1.0 2.0 0.00 0.00 0.00 69 1011.3
20260906070726 84 83 1.0 1.0 0.00 0.00 0.00 69 1011.2
20260906070221 84 86 1.0 1.0 0.00 0.00 0.00 69 1011.3
20260906065721 84 74 1.0 1.0 0.00 0.00 0.00 69 1011.3
20260906065216 84 78 1.0 1.0 0.00 0.00 0.00 69 1011.7
20260906064712 84 81 2.0 2.0 0.00 0.00 0.00 69 1011.6
20260906064207 84 78 1.0 1.0 0.00 0.00 0.00 68 1011.7
20260906063702 84 81 1.0 1.0 0.00 0.00 0.00 68 1011.9
20260906063158 84 305 2.0 2.0 0.00 0.00 0.00 68 1011.4
20260906062653 84 353 1.0 1.0 0.00 0.00 0.00 68 1011.3
20260906062152 84 16 2.0 2.0 0.00 0.00 0.00 68 1011.6
20260906061648 85 84 2.0 2.0 0.00 0.00 0.00 68 1011.4
20260906061149 85 90 2.0 2.0 0.00 0.00 0.00 68 1011.7
20260906060645 85 66 2.0 2.0 0.00 0.00 0.00 68 1011.9
20260906060142 85 65 1.0 1.0 0.00 0.00 0.00 67 1011.7
20260906055637 85 69 1.0 2.0 0.00 0.00 0.00 67 1011.7
20260906055132 85 88 1.0 2.0 0.00 0.00 0.00 67 1011.6
20260906054627 85 76 1.0 2.0 0.00 0.00 0.00 68 1011.7
20260906054123 85 15 2.0 2.0 0.00 0.00 0.00 68 1011.7
20260906053620 85 76 1.0 1.0 0.00 0.00 0.00 67 1011.6
20260906053120 85 47 3.0 3.0 0.00 0.00 0.00 67 1011.6
20260906052615 85 73 1.0 1.0 0.00 0.00 0.00 67 1011.6
20260906052112 85 78 1.0 1.0 0.00 0.00 0.00 67 1011.8
20260906051608 85 58 1.0 2.0 0.00 0.00 0.00 67 1011.9
20260906051103 85 89 1.0 2.0 0.00 0.00 0.00 67 1011.9
20260906050558 85 91 2.0 2.0 0.00 0.00 0.00 67 1011.7
20260906050053 86 98 0.0 1.0 0.00 0.00 0.00 67 1011.6
20260906045551 86 88 0.0 1.0 0.00 0.00 0.00 67 1012.0
20260906045047 86 94 0.0 0.0 0.00 0.00 0.00 66 1011.6
20260906044542 86 88 1.0 1.0 0.00 0.00 0.00 65 1011.7
20260906044038 86 167 2.0 2.0 0.00 0.00 0.00 65 1011.3
20260906043533 86 71 2.0 3.0 0.00 0.00 0.00 65 1011.2
20260906043030 86 90 2.0 2.0 0.00 0.00 0.00 65 1011.4
20260906042528 86 56 2.0 2.0 0.00 0.00 0.00 65 1011.4
20260906042023 86 73 1.0 1.0 0.00 0.00 0.00 65 1011.4
20260906041519 87 24 2.0 3.0 0.00 0.00 0.00 65 1011.6
20260906041019 87 97 1.0 1.0 0.00 0.00 0.00 64 1011.6
20260906040514 87 76 2.0 2.0 0.00 0.00 0.00 64 1011.6
20260906040010 87 110 2.0 2.0 0.00 0.00 0.00 63 1011.6
20260906035505 87 36 3.0 3.0 0.00 0.00 0.00 63 1011.3
20260906035001 87 71 3.0 3.0 0.00 0.00 0.00 63 1011.3
20260906034500 87 86 1.0 1.0 0.00 0.00 0.00 62 1011.3
20260906033955 87 63 2.0 2.0 0.00 0.00 0.00 62 1011.4
20260906033450 87 80 1.0 1.0 0.00 0.00 0.00 62 1011.4
20260906032946 88 22 2.0 2.0 0.00 0.00 0.00 61 1011.4
20260906032443 88 86 1.0 2.0 0.00 0.00 0.00 61 1011.3
20260906031942 88 77 2.0 2.0 0.00 0.00 0.00 61 1011.6
20260906031438 88 89 1.0 1.0 0.00 0.00 0.00 60 1011.3
20260906030933 88 90 1.0 1.0 0.00 0.00 0.00 60 1011.4
20260906030427 88 89 1.0 1.0 0.00 0.00 0.00 59 1011.3
20260906025922 89 304 3.0 3.0 0.00 0.00 0.00 59 1011.6
20260906025416 89 277 1.0 2.0 0.00 0.00 0.00 59 1011.3
20260906024915 89 107 3.0 6.0 0.00 0.00 0.00 58 1011.2
20260906024414 89 108 1.0 2.0 0.00 0.00 0.00 58 1011.3
20260906023910 89 36 2.0 2.0 0.00 0.00 0.00 58 1011.1
20260906023407 89 76 2.0 2.0 0.00 0.00 0.00 57 1011.1
20260906022906 89 5 2.0 2.0 0.00 0.00 0.00 57 1010.8
20260906022401 90 81 1.0 1.0 0.00 0.00 0.00 56 1010.9
20260906021857 90 314 3.0 3.0 0.00 0.00 0.00 56 1010.8
20260906021356 90 78 2.0 2.0 0.00 0.00 0.00 55 1010.8
20260906020851 90 104 1.0 1.0 0.00 0.00 0.00 55 1010.8
20260906020350 90 82 2.0 3.0 0.00 0.00 0.00 54 1010.5
20260906015846 91 100 0.0 1.0 0.00 0.00 0.00 54 1010.5
20260906015345 91 159 1.0 2.0 0.00 0.00 0.00 53 1010.5
20260906014845 91 55 1.0 2.0 0.00 0.00 0.00 53 1010.3
20260906014344 92 251 4.0 8.0 0.00 0.00 0.00 51 1010.3
20260906013841 93 252 4.0 6.0 0.00 0.00 0.00 49 1010.1
20260906013336 94 72 2.0 2.0 0.00 0.00 0.00 43 1010.0
20260906012832 95 116 3.0 5.0 0.00 0.00 0.00 42 1010.1
20260906012327 95 212 5.0 7.0 0.00 0.00 0.00 42 1009.8
20260906011826 95 176 3.0 3.0 0.00 0.00 0.00 42 1009.7
20260906011321 95 100 2.0 3.0 0.00 0.00 0.00 42 1009.7
20260906010817 95 117 3.0 3.0 0.00 0.00 0.00 42 1009.4
20260906010313 95 145 2.0 3.0 0.00 0.00 0.00 42 1009.5
20260906005808 95 190 1.0 2.0 0.00 0.00 0.00 41 1009.4
20260906005307 95 88 1.0 1.0 0.00 0.00 0.00 41 1009.6
20260906004807 95 32 0.0 1.0 0.00 0.00 0.00 41 1009.5
20260906004307 95 76 3.0 3.0 0.00 0.00 0.00 40 1009.5
20260906003802 95 83 1.0 2.0 0.00 0.00 0.00 40 1009.5
20260906003257 96 91 2.0 2.0 0.00 0.00 0.00 40 1009.6
20260906002753 96 83 1.0 2.0 0.00 0.00 0.00 40 1009.5
20260906002252 96 170 1.0 2.0 0.00 0.00 0.00 39 1009.4
20260906001748 96 166 0.0 1.0 0.00 0.00 0.00 39 1009.5
20260906001248 96 86 1.0 1.0 0.00 0.00 0.00 40 1009.5
20260906000744 96 102 0.0 1.0 0.00 0.00 0.00 39 1009.5
20260906000244 96 160 3.0 5.0 0.00 0.00 0.00 39 1009.1
20260905235738 96 89 0.0 1.0 0.00 0.00 0.00 40 1009.3
20260905235238 97 298 1.0 2.0 0.00 0.00 0.00 40 1009.2
20260905234734 97 84 2.0 2.0 0.00 0.00 0.00 39 1009.4
20260905234229 97 74 0.0 1.0 0.00 0.00 0.00 39 1009.3
20260905233724 97 87 2.0 2.0 0.00 0.00 0.00 39 1009.3
20260905233223 97 145 2.0 2.0 0.00 0.00 0.00 39 1009.1
20260905232719 97 81 1.0 2.0 0.00 0.00 0.00 39 1009.3
20260905232214 97 324 2.0 2.0 0.00 0.00 0.00 39 1009.4
20260905231710 97 85 0.0 0.0 0.00 0.00 0.00 39 1009.4
20260905231205 98 89 1.0 2.0 0.00 0.00 0.00 39 1009.3
20260905230701 98 51 1.0 1.0 0.00 0.00 0.00 38 1009.1
20260905230159 97 152 3.0 3.0 0.00 0.00 0.00 39 1009.1
20260905225658 98 89 1.0 1.0 0.00 0.00 0.00 38 1008.9
20260905225154 98 68 3.0 6.0 0.00 0.00 0.00 38 1009.3
20260905224654 98 111 1.0 2.0 0.00 0.00 0.00 38 1009.0